DW8425 Weather Reports


time (UTC)temp
C
wind
direction
speed
KPH
gust
KPH
rain 1hr
cm
rain 24hr
cm
rain mn
cm
humidity
%
barometer
mb
20260507104517 2 142 0.0 0.0 0.00 0.00 0.00 83 1012.7
20260507103010 3 146 0.0 3.2 0.00 0.00 0.00 83 1012.8
20260507101508 3 153 0.0 1.6 0.00 0.00 0.00 83 1012.9
20260507100009 3 167 0.0 0.0 0.00 0.00 0.00 82 1013.0
20260507094504 3 168 0.0 0.0 0.00 0.00 0.00 82 1013.2
20260507093003 3 171 0.0 1.6 0.00 0.00 0.00 81 1013.1
20260507091501 3 169 0.0 1.6 0.00 0.00 0.00 79 1013.1
20260507090059 3 157 0.0 3.2 0.00 0.00 0.00 79 1013.1
20260507084602 3 142 0.0 1.6 0.00 0.00 0.00 78 1013.1
20260507083057 3 141 0.0 4.8 0.00 0.00 0.00 77 1013.2
20260507081554 4 137 0.0 3.2 0.00 0.00 0.00 77 1013.4
20260507080053 4 136 0.0 3.2 0.00 0.00 0.00 76 1013.5
20260507074552 5 140 0.0 0.0 0.00 0.00 0.00 76 1013.7
20260507073053 5 140 0.0 0.0 0.00 0.00 0.00 75 1013.6
20260507071548 5 140 0.0 1.6 0.00 0.00 0.00 75 1013.7
20260507070057 5 162 1.6 3.2 0.00 0.00 0.00 75 1013.7
20260507064547 5 162 0.0 0.0 0.00 0.00 0.00 73 1013.7
20260507063041 5 162 0.0 4.8 0.00 0.00 0.00 71 1013.7
20260507061541 6 128 0.0 1.6 0.00 0.00 0.00 70 1013.7
20260507060044 6 128 0.0 1.6 0.00 0.00 0.00 69 1013.7
20260507054540 6 136 0.0 4.8 0.00 0.00 0.00 68 1013.6
20260507053038 7 145 0.0 0.0 0.00 0.00 0.00 66 1013.5
20260507051535 7 145 0.0 8.0 0.00 0.00 0.00 66 1013.5
20260507050058 7 140 0.0 1.6 0.00 0.00 0.00 66 1013.3
20260507044546 7 142 0.0 8.0 0.00 0.00 0.00 65 1013.4
20260507043035 8 72 0.0 3.2 0.00 0.00 0.00 63 1013.2
20260507041533 8 76 0.0 1.6 0.00 0.00 0.00 62 1013.2
20260507040033 8 60 0.0 3.2 0.00 0.00 0.00 61 1013.2
20260507034538 8 42 0.0 3.2 0.00 0.00 0.00 59 1013.3
20260507033040 9 85 0.0 3.2 0.00 0.00 0.00 59 1013.0
20260507031534 10 46 0.0 3.2 0.00 0.00 0.00 58 1012.9
20260507030037 11 350 0.0 1.6 0.00 0.00 0.00 55 1012.9
20260507024540 12 349 0.0 1.6 0.00 0.00 0.00 51 1012.9
20260507023031 12 349 0.0 4.8 0.00 0.00 0.00 48 1013.0
20260507021545 12 310 0.0 4.8 0.00 0.00 0.00 48 1013.1
20260507020033 13 321 1.6 11.3 0.00 0.00 0.00 46 1013.1
20260507014529 13 360 1.6 11.3 0.00 0.00 0.00 45 1013.0
20260507013034 13 360 3.2 9.7 0.00 0.00 0.00 45 1012.9
20260507011532 13 360 3.2 11.3 0.00 0.00 0.00 44 1013.1
20260507010039 14 286 1.6 11.3 0.00 0.00 0.00 43 1013.1
20260507004528 15 196 1.6 12.9 0.00 0.00 0.00 40 1012.9
20260507003027 15 311 1.6 8.0 0.00 0.00 0.00 38 1013.0
20260507001530 15 290 3.2 11.3 0.00 0.00 0.00 37 1012.7
20260507000032 16 237 3.2 9.7 0.00 0.00 0.00 36 1012.6
20260506234525 16 318 3.2 9.7 0.00 0.00 0.00 35 1012.8
20260506233025 16 296 3.2 8.0 0.00 0.00 0.00 34 1012.5
20260506231527 16 314 4.8 12.9 0.00 0.00 0.00 36 1012.5
20260506230022 16 236 1.6 12.9 0.00 0.00 0.00 39 1012.9
20260506224521 16 306 4.8 14.5 0.00 0.00 0.00 36 1013.1
20260506223020 16 316 3.2 14.5 0.00 0.00 0.00 40 1013.1
20260506221519 15 35 3.2 8.0 0.00 0.00 0.00 39 1013.3
20260506220027 15 290 4.8 20.9 0.00 0.00 0.00 39 1013.5
20260506214519 15 305 3.2 14.5 0.00 0.00 0.00 40 1013.7
20260506213027 14 302 1.6 11.3 0.00 0.00 0.00 40 1013.8
20260506211519 14 315 3.2 11.3 0.00 0.00 0.00 39 1013.8
20260506210018 15 350 1.6 11.3 0.00 0.00 0.00 40 1013.9
20260506204517 15 323 3.2 12.9 0.00 0.00 0.00 41 1014.1
20260506203023 15 360 3.2 12.9 0.00 0.00 0.00 40 1013.9
20260506201511 15 276 3.2 6.4 0.00 0.00 0.00 41 1013.9
20260506200010 13 220 1.6 16.1 0.00 0.00 0.00 47 1013.9
20260506194512 13 317 1.6 8.0 0.00 0.00 0.00 44 1014.1
20260506193014 13 321 3.2 9.7 0.00 0.00 0.00 44 1014.2
20260506191511 13 319 4.8 12.9 0.00 0.00 0.00 43 1014.2
20260506190008 14 295 3.2 11.3 0.00 0.00 0.00 45 1014.2
20260506184506 13 142 8.0 19.3 0.00 0.00 0.00 42 1014.3
20260506183004 13 283 1.6 11.3 0.00 0.00 0.00 44 1014.2
20260506181502 12 350 6.4 19.3 0.00 0.00 0.00 45 1014.3
20260506180101 12 311 3.2 12.9 0.00 0.00 0.00 46 1014.3
20260506174604 12 254 0.0 14.5 0.00 0.00 0.00 49 1014.3
20260506173115 12 360 4.8 11.3 0.00 0.00 0.00 47 1014.4
20260506171600 11 310 1.6 14.5 0.00 0.00 0.00 49 1014.4
20260506170054 11 64 3.2 9.7 0.00 0.00 0.00 52 1014.4
20260506164553 10 309 4.8 9.7 0.00 0.00 0.00 53 1014.4
20260506163052 10 319 3.2 8.0 0.00 0.00 0.00 54 1014.4
20260506161551 7 328 1.6 4.8 0.00 0.00 0.00 60 1014.4
20260506160045 6 310 0.0 3.2 0.00 0.00 0.00 63 1014.5
20260506154537 5 175 0.0 4.8 0.00 0.00 0.00 65 1014.6
20260506153035 4 165 0.0 4.8 0.00 0.00 0.00 68 1014.6
20260506151542 3 173 1.6 6.4 0.00 0.00 0.00 70 1014.7
20260506150034 2 154 0.0 4.8 0.00 0.00 0.00 77 1014.7
20260506144534 1 360 0.0 3.2 0.00 0.00 0.00 79 1014.9
20260506143044 0 360 0.0 1.6 0.00 0.00 0.00 80 1014.9
20260506141531 0 360 0.0 3.2 0.00 0.00 0.00 83 1014.8
20260506140036 -1 162 0.0 1.6 0.00 0.00 0.00 86 1014.8
20260506134529 -2 163 0.0 0.0 0.00 0.00 0.00 90 1014.6
20260506133031 -2 164 0.0 0.0 0.00 0.00 0.00 88 1014.6
20260506131528 -3 164 0.0 1.6 0.00 0.00 0.00 87 1014.1
20260506130025 -2 151 1.6 4.8 0.00 0.00 0.00 86 1014.0
20260506124522 -2 78 0.0 0.0 0.00 0.00 0.00 88 1013.8
20260506123020 -2 77 0.0 0.0 0.00 0.00 0.00 85 1013.5
20260506121517 -2 77 0.0 1.6 0.00 0.00 0.00 86 1013.4
20260506120017 -2 77 0.0 1.6 0.00 0.00 0.00 85 1013.5
20260506114520 -2 77 0.0 0.0 0.00 0.00 0.00 86 1013.4
20260506113014 -2 78 0.0 1.6 0.00 0.00 0.00 83 1013.0
20260506111510 -1 119 0.0 0.0 0.00 0.00 0.00 81 1012.8
20260506110007 -1 113 0.0 1.6 0.00 0.00 0.00 79 1012.6